SCOUT A DEB, 2644

Orbit data source: Space-Track

SCOUT A DEB, 2644 is space debris in LEO originally from a launch on Thu, 19 May 1966 UTC launched from the Air Force Western Test Range (AFWTR). Debris objects in space refer to the collection of defunct objects orbiting the Earth. Examples of debris include non-operational satellites, rocket bodies, and fragments generated from explosions, collisions, or faulty payload assembly.

Loading next visibility...
Identifier
2644, 1966-041D
Orbit
LEO
Country
Flag of USUS
Related business
Manufacturer
Unknown
Mission
Spacecraft
Bus & Motor
Unknown
Mass
Unknown
Launch date (UTC)
1966-05-19 (59 years ago)
Launch vehicle
Unknown
Launch site
Air Force Western Test Range (AFWTR)
Object type
Payload
Rocket body
Debris
Shape & HBR
Unknown shape, 0.1 m
Radar Cross Section
Small (<0.1 m²)

Expand to show TLE details & history
Last TLE update: 11 hours ago

TLE from 11 hours ago
0 SCOUT A DEB
1 02644U 66041D   25287.31969005  .00000345  00000-0  28651-3 0  9997
2 02644  90.1613  41.0888 0213570  32.6285 328.7870 13.77041897964855
Epoch: 2025-10-14T07:40Z
TLE epoch observation values (Epoch: 2025-10-14T07:40:21.220Z)
Latitude
Longitude
-97.10943°
Altitude
843.991 km
Speed
7.498 km/s
True Right ascension
02h 44m 21s
True Declination
0° 00' 00"
Sunlit
Object was in full shadow at epoch
Visualization orbit readout
Latitude
Unknown
Longitude
Unknown
Altitude
Unknown
Speed
Unknown
Apparent Right ascension
Unknown
Apparent Declination
Unknown
Sunlit
N/A
Visualization observer readout
Local Sidereal Time
13:28:59
Azimuth
Unknown
Elevation
Unknown
Doppler factor
Unknown
Orbital elements
Apogee altitude
1,128.37 km
Perigee altitude
814.442 km
Semi-major axis
7,349.543 km
Eccentricity
0.02136
Inclination
90.1613°
RAAN
41.0888°
Arg. of periapsis
32.6285°
True anomaly
327.48925°
Mean anomaly
328.787°
Eccentric anomaly
328.14111°
Mean motion
3.44471 °/min
Orbital period
104.51 mins
BSTAR
0.00028651
Loading maneuver chart data...
Computing Atmospheric mass density...
Loading historical data...
Loading historical data...
Loading historical data...
Loading historical data...
Loading historical data...
Loading historical data...
Loading historical data...

Documentation

Showing up to 5 results
|